timestamp,wind_dir_avg,wind_spd_avg,wind_spd_max_dir,wind_spd_gust,battery_voltage,lat,long
2021-11-20 00:04:01+00:00,197.0,20.97,198.0,25.45,12.41,47.59359,-54.27349
2021-11-20 00:14:01+00:00,201.0,19.26,199.0,22.31,12.41,47.59359,-54.27349
2021-11-20 00:24:01+00:00,200.0,20.44,197.0,24.73,12.41,47.59359,-54.27349
2021-11-20 00:34:01+00:00,202.0,19.21,198.0,25.61,12.41,47.59359,-54.27349
2021-11-20 00:44:01+00:00,201.0,19.33,199.0,23.61,12.41,47.59359,-54.27349
2021-11-20 00:54:01+00:00,200.0,18.14,200.0,21.28,12.41,47.59359,-54.27349
2021-11-20 01:04:01+00:00,199.0,18.29,195.0,25.6,12.41,47.59359,-54.27349
2021-11-20 01:14:01+00:00,199.0,19.55,208.0,25.34,12.41,47.59359,-54.27349
2021-11-20 01:24:01+00:00,195.0,19.91,193.0,29.72,12.41,47.59359,-54.27349
2021-11-20 01:34:01+00:00,192.0,21.55,193.0,27.31,12.41,47.59359,-54.27349
2021-11-20 01:44:01+00:00,198.0,21.38,196.0,27.17,12.41,47.59359,-54.27349
2021-11-20 01:54:01+00:00,197.0,23.32,199.0,26.99,12.41,47.59359,-54.27349
2021-11-20 02:04:01+00:00,197.0,21.03,196.0,24.77,12.41,47.59359,-54.27349
2021-11-20 02:14:00+00:00,199.0,21.85,208.0,29.24,12.41,47.59359,-54.27349
2021-11-20 02:24:00+00:00,199.0,21.71,202.0,26.06,12.41,47.59359,-54.27349
2021-11-20 02:34:00+00:00,201.0,19.87,207.0,24.96,12.41,47.59359,-54.27349
2021-11-20 02:44:00+00:00,214.0,17.58,208.0,24.22,12.41,47.59359,-54.27349
2021-11-20 02:54:00+00:00,225.0,13.18,226.0,18.27,12.41,47.59359,-54.27349
2021-11-20 03:04:00+00:00,211.0,15.95,227.0,19.48,12.41,47.59359,-54.27349
2021-11-20 03:14:01+00:00,212.0,16.41,226.0,20.3,12.41,47.59359,-54.27349
2021-11-20 03:24:01+00:00,211.0,14.89,206.0,17.02,12.41,47.59359,-54.27349
2021-11-20 03:34:01+00:00,216.0,13.67,219.0,16.27,12.41,47.59359,-54.27349
2021-11-20 03:44:01+00:00,223.0,10.15,225.0,12.13,12.41,47.59359,-54.27349
2021-11-20 03:54:01+00:00,224.0,7.41,232.0,9.71,12.41,47.59359,-54.27349
2021-11-20 04:04:01+00:00,217.0,6.2,217.0,6.63,12.41,47.59359,-54.27349
2021-11-20 04:14:01+00:00,218.0,5.02,221.0,5.5,12.41,47.59359,-54.27349
2021-11-20 04:24:01+00:00,202.0,6.62,206.0,7.33,12.41,47.59359,-54.27349
2021-11-20 04:34:01+00:00,206.0,7.68,205.0,8.87,12.41,47.59359,-54.27349
2021-11-20 04:44:01+00:00,200.0,8.33,202.0,9.26,12.41,47.59359,-54.27349
2021-11-20 04:54:01+00:00,202.0,8.24,202.0,9.25,12.41,47.59359,-54.27349
2021-11-20 05:04:01+00:00,194.0,8.0,195.0,8.93,12.41,47.59359,-54.27349
2021-11-20 05:14:00+00:00,198.0,7.6,199.0,8.39,12.41,47.59359,-54.27349
2021-11-20 05:24:00+00:00,202.0,7.85,203.0,8.61,12.41,47.59359,-54.27349
2021-11-20 05:34:00+00:00,208.0,7.0,209.0,7.53,12.41,47.59359,-54.27349
2021-11-20 05:44:00+00:00,203.0,8.4,200.0,9.28,12.41,47.59359,-54.27349
2021-11-20 05:54:00+00:00,205.0,8.84,205.0,10.06,12.41,47.59359,-54.27349
2021-11-20 06:04:00+00:00,213.0,9.85,217.0,11.22,12.41,47.59359,-54.27349
2021-11-20 06:14:00+00:00,206.0,8.07,204.0,9.49,12.33,47.59359,-54.27349
2021-11-20 06:24:00+00:00,205.0,9.64,209.0,10.44,12.33,47.59359,-54.27349
2021-11-20 06:34:00+00:00,209.0,8.25,209.0,9.15,12.33,47.59359,-54.27349
2021-11-20 06:44:00+00:00,202.0,9.11,199.0,10.62,12.33,47.59359,-54.27349
2021-11-20 06:54:00+00:00,200.0,7.64,204.0,9.13,12.33,47.59359,-54.27349
2021-11-20 07:04:00+00:00,202.0,7.86,201.0,9.66,12.33,47.59359,-54.27349
2021-11-20 07:14:00+00:00,206.0,8.75,205.0,9.6,12.33,47.59359,-54.27349
2021-11-20 07:24:00+00:00,214.0,7.4,216.0,8.23,12.33,47.59359,-54.27349
2021-11-20 07:34:00+00:00,225.0,9.17,226.0,11.01,12.33,47.59359,-54.27349
2021-11-20 07:44:00+00:00,215.0,7.84,212.0,8.86,12.33,47.59359,-54.27349
2021-11-20 07:54:00+00:00,214.0,8.06,225.0,10.39,12.33,47.59359,-54.27349
2021-11-20 08:04:00+00:00,211.0,8.1,203.0,9.79,12.33,47.59359,-54.27349
2021-11-20 08:14:01+00:00,206.0,8.23,202.0,9.89,12.33,47.59359,-54.27349
2021-11-20 08:24:01+00:00,214.0,10.05,218.0,11.71,12.33,47.59359,-54.27349
2021-11-20 08:34:01+00:00,214.0,8.13,211.0,9.31,12.33,47.59359,-54.27349
2021-11-20 08:44:01+00:00,215.0,10.16,208.0,11.39,12.33,47.59359,-54.27349
2021-11-20 08:54:01+00:00,215.0,10.29,216.0,11.96,12.33,47.59359,-54.27349
2021-11-20 09:04:01+00:00,214.0,10.11,219.0,12.18,12.33,47.59359,-54.27349
2021-11-20 09:14:00+00:00,215.0,10.63,223.0,13.37,12.33,47.59359,-54.27349
2021-11-20 09:24:00+00:00,213.0,11.01,215.0,12.76,12.33,47.59359,-54.27349
2021-11-20 09:34:00+00:00,216.0,9.43,213.0,10.78,12.33,47.59359,-54.27349
2021-11-20 09:44:00+00:00,217.0,9.69,217.0,11.56,12.33,47.59359,-54.27349
2021-11-20 09:54:00+00:00,242.0,7.76,248.0,8.84,12.33,47.59359,-54.27349
2021-11-20 10:04:00+00:00,279.0,8.71,271.0,10.35,12.33,47.59359,-54.27349
2021-11-20 10:14:00+00:00,317.0,7.93,309.0,9.77,12.33,47.59359,-54.27349
2021-11-20 10:24:00+00:00,315.0,8.6,320.0,10.17,12.33,47.59359,-54.27349
2021-11-20 10:34:00+00:00,314.0,9.2,318.0,10.5,12.33,47.59359,-54.27349
2021-11-20 10:44:00+00:00,315.0,9.39,310.0,10.59,12.33,47.59359,-54.27349
2021-11-20 10:54:00+00:00,323.0,9.88,324.0,11.28,12.33,47.59359,-54.27349
2021-11-20 11:04:00+00:00,322.0,8.0,326.0,8.89,12.33,47.59359,-54.27349
2021-11-20 11:14:01+00:00,322.0,6.71,311.0,8.32,12.33,47.59359,-54.27349
2021-11-20 11:24:01+00:00,319.0,6.39,314.0,8.22,12.33,47.59359,-54.27349
2021-11-20 11:34:01+00:00,310.0,6.41,305.0,7.81,12.33,47.59359,-54.27349
2021-11-20 11:44:01+00:00,318.0,6.01,318.0,7.35,12.33,47.59359,-54.27349
2021-11-20 11:54:01+00:00,322.0,6.5,325.0,8.24,12.33,47.59359,-54.27349
2021-11-20 12:04:01+00:00,314.0,6.22,310.0,7.8,12.33,47.59359,-54.27349
2021-11-20 12:14:00+00:00,313.0,6.22,316.0,7.05,12.41,47.59359,-54.27349
2021-11-20 12:24:00+00:00,303.0,5.63,306.0,7.17,12.41,47.59359,-54.27349
2021-11-20 12:34:00+00:00,299.0,4.7,301.0,5.95,12.41,47.59359,-54.27349
2021-11-20 12:44:00+00:00,301.0,7.16,295.0,8.14,12.41,47.59359,-54.27349
2021-11-20 12:54:00+00:00,314.0,6.37,315.0,7.51,12.41,47.59359,-54.27349
2021-11-20 13:04:00+00:00,313.0,6.1,316.0,7.76,12.41,47.59359,-54.27349
2021-11-20 13:14:01+00:00,305.0,5.29,304.0,6.87,13.21,47.59359,-54.27349
2021-11-20 13:24:01+00:00,317.0,4.45,324.0,5.55,13.21,47.59359,-54.27349
2021-11-20 13:34:01+00:00,297.0,5.01,309.0,6.12,13.21,47.59359,-54.27349
2021-11-20 13:44:01+00:00,300.0,3.23,314.0,4.19,13.21,47.59359,-54.27349
2021-11-20 13:54:01+00:00,298.0,4.09,316.0,5.26,13.21,47.59359,-54.27349
2021-11-20 14:04:01+00:00,306.0,6.82,308.0,7.73,13.21,47.59359,-54.27349
2021-11-20 14:14:01+00:00,301.0,7.82,309.0,8.81,13.68,47.59359,-54.27349
2021-11-20 14:24:01+00:00,303.0,7.76,302.0,9.17,13.68,47.59359,-54.27349
2021-11-20 14:34:01+00:00,301.0,6.53,297.0,7.43,13.68,47.59359,-54.27349
2021-11-20 14:44:01+00:00,307.0,6.37,316.0,7.17,13.68,47.59359,-54.27349
2021-11-20 14:54:01+00:00,298.0,6.66,291.0,7.6,13.68,47.59359,-54.27349
2021-11-20 15:04:01+00:00,298.0,8.47,296.0,9.98,13.68,47.59359,-54.27349
2021-11-20 15:14:00+00:00,308.0,8.12,310.0,9.02,14.08,47.59359,-54.27349
2021-11-20 15:24:00+00:00,300.0,6.3,306.0,7.19,14.08,47.59359,-54.27349
2021-11-20 15:34:00+00:00,306.0,6.12,301.0,7.77,14.08,47.59359,-54.27349
2021-11-20 15:44:00+00:00,297.0,5.77,295.0,7.2,14.08,47.59359,-54.27349
2021-11-20 15:54:00+00:00,302.0,6.3,302.0,7.82,14.08,47.59359,-54.27349
2021-11-20 16:04:00+00:00,304.0,7.24,303.0,8.28,14.08,47.59359,-54.27349
2021-11-20 16:14:01+00:00,310.0,6.72,315.0,7.55,14.08,47.59359,-54.27349
2021-11-20 16:24:01+00:00,290.0,8.24,284.0,12.78,14.08,47.59359,-54.27349
2021-11-20 16:34:01+00:00,292.0,7.71,289.0,8.52,14.08,47.59359,-54.27349
2021-11-20 16:44:01+00:00,306.0,6.78,305.0,7.41,14.08,47.59359,-54.27349
2021-11-20 16:54:01+00:00,293.0,7.85,298.0,8.9,14.08,47.59359,-54.27349
2021-11-20 17:04:01+00:00,290.0,7.16,288.0,7.97,14.08,47.59359,-54.27349
2021-11-20 17:14:01+00:00,277.0,10.35,279.0,14.41,14.32,47.59359,-54.27349
2021-11-20 17:24:01+00:00,301.0,7.29,306.0,8.4,14.32,47.59359,-54.27349
2021-11-20 17:34:01+00:00,291.0,7.19,299.0,8.07,14.32,47.59359,-54.27349
2021-11-20 17:44:01+00:00,288.0,7.4,289.0,8.08,14.32,47.59359,-54.27349
2021-11-20 17:54:01+00:00,280.0,5.3,285.0,6.28,14.32,47.59359,-54.27349
2021-11-20 18:04:01+00:00,284.0,4.74,282.0,5.47,14.32,47.59359,-54.27349
2021-11-20 18:14:01+00:00,277.0,7.27,270.0,7.89,14.24,47.59359,-54.27349
2021-11-20 18:24:01+00:00,293.0,7.51,297.0,8.41,14.24,47.59359,-54.27349
2021-11-20 18:34:01+00:00,299.0,9.47,290.0,13.56,14.24,47.59359,-54.27349
2021-11-20 18:44:01+00:00,306.0,6.6,300.0,8.15,14.24,47.59359,-54.27349
2021-11-20 18:54:01+00:00,301.0,6.25,301.0,7.79,14.24,47.59359,-54.27349
2021-11-20 19:04:01+00:00,291.0,5.81,294.0,7.27,14.24,47.59359,-54.27349
2021-11-20 19:14:01+00:00,280.0,6.32,286.0,7.29,13.29,47.59359,-54.27349
2021-11-20 19:24:01+00:00,297.0,5.19,289.0,7.22,13.29,47.59359,-54.27349
2021-11-20 19:34:01+00:00,305.0,5.87,303.0,6.42,13.29,47.59359,-54.27349
2021-11-20 19:44:01+00:00,299.0,5.44,293.0,7.67,13.29,47.59359,-54.27349
2021-11-20 19:54:01+00:00,299.0,4.98,294.0,7.06,13.29,47.59359,-54.27349
2021-11-20 20:04:01+00:00,305.0,5.8,302.0,6.28,13.29,47.59359,-54.27349
2021-11-20 20:14:01+00:00,302.0,5.0,307.0,6.14,12.81,47.59359,-54.27349
2021-11-20 20:24:01+00:00,302.0,5.39,308.0,6.28,12.81,47.59359,-54.27349
2021-11-20 20:34:01+00:00,296.0,5.23,298.0,6.03,12.81,47.59359,-54.27349
2021-11-20 20:44:01+00:00,295.0,5.46,299.0,6.13,12.81,47.59359,-54.27349
2021-11-20 20:54:01+00:00,295.0,5.22,290.0,5.92,12.81,47.59359,-54.27349
2021-11-20 21:04:01+00:00,298.0,5.4,303.0,6.3,12.81,47.59359,-54.27349
2021-11-20 21:14:01+00:00,294.0,5.5,286.0,6.9,12.65,47.59359,-54.27349
2021-11-20 21:24:01+00:00,302.0,6.33,307.0,6.95,12.65,47.59359,-54.27349
2021-11-20 21:34:01+00:00,298.0,5.54,298.0,6.36,12.65,47.59359,-54.27349
2021-11-20 21:44:01+00:00,311.0,8.09,312.0,9.33,12.65,47.59359,-54.27349
2021-11-20 21:54:01+00:00,318.0,9.0,319.0,10.46,12.65,47.59359,-54.27349
2021-11-20 22:04:01+00:00,310.0,7.68,309.0,8.94,12.65,47.59359,-54.27349
2021-11-20 22:14:01+00:00,306.0,7.6,307.0,8.81,12.65,47.59359,-54.27349
2021-11-20 22:24:01+00:00,310.0,6.42,303.0,7.29,12.65,47.59359,-54.27349
2021-11-20 22:34:01+00:00,315.0,6.24,313.0,7.85,12.65,47.59359,-54.27349
2021-11-20 22:44:01+00:00,310.0,7.41,308.0,8.26,12.65,47.59359,-54.27349
2021-11-20 22:54:01+00:00,320.0,5.96,310.0,7.16,12.65,47.59359,-54.27349
2021-11-20 23:04:01+00:00,315.0,6.41,323.0,7.47,12.65,47.59359,-54.27349
2021-11-20 23:14:01+00:00,312.0,8.2,317.0,9.58,12.57,47.59359,-54.27349
2021-11-20 23:24:01+00:00,320.0,7.85,328.0,8.53,12.57,47.59359,-54.27349
2021-11-20 23:34:01+00:00,333.0,7.99,333.0,9.14,12.57,47.59359,-54.27349
2021-11-20 23:44:01+00:00,335.0,10.0,335.0,11.4,12.57,47.59359,-54.27349
2021-11-20 23:54:01+00:00,326.0,8.24,326.0,9.72,12.57,47.59359,-54.27349
